Location: Newark
(7.0858°N, 171.3717°E)
Time: 01:03:52
(UTC+00:00)

Vanguard 3 - Pass Details

Date: 03 December 2020
Orbit: 508 x 3262 km, 33.3° (Epoch: 19 January)

Event Time Altitude Azimuth Distance (km) Brightness Sun altitude
Exits shadow 16:49:39 26° 251° (WSW) 3,004 9.6 -24.6°
Maximum altitude 16:54:42 37° 208° (SSW) 2,972 9.9 -23.4°
Drops below altitude 10° 17:08:59 10° 148° (SSE) 5,725 12.2 -20.1°
Sets 17:14:45 0° 140° (SE) 7,020 13.0 -18.8°
